Simultaneous Nadir Overpasses (SNOs) Predictions

Prediction of SNOs between METOP-B and TERRA Satellite Orbit:

Table of predicted SNOs for the next 14.0 days since TLE Epoch: 6/18/2016
Index Date (METOP-B) Time (METOP-B) Lat,Lon (METOP-B) SZA (METOP-B ) Date (TERRA) Time (TERRA) Lat,Lon (TERRA) SZA (TERRA ) Distance(km) Time Diff (sec)
1 06/20/2016 12:57:45 81.27, 31.97 60.64 06/20/2016 12:58:45 81.26, 31.85 60.64 2.23 60
2 06/20/2016 13:48:24 -81.27,-160.13 119.30 06/20/2016 13:48:11 -81.27,-160.21 119.31 1.34 13
3 06/23/2016 08:32:08 81.27, 98.32 60.63 06/23/2016 08:33:00 81.27, 98.49 60.68 2.89 52
4 06/23/2016 09:22:47 -81.27, -93.75 119.30 06/23/2016 09:22:27 -81.27, -93.91 119.33 2.75 20
5 06/26/2016 04:06:29 81.27, 165.04 60.73 06/26/2016 04:07:14 81.28, 165.08 60.76 0.98 45
6 06/26/2016 04:57:09 -81.27, -27.40 119.25 06/26/2016 04:56:41 -81.28, -27.29 119.25 1.90 28
7 06/28/2016 23:40:52 81.27,-128.65 60.82 06/28/2016 23:41:30 81.26,-128.77 60.82 2.17 38
8 06/29/2016 00:31:31 -81.28, 39.32 119.10 06/29/2016 00:30:56 -81.28, 39.27 119.12 1.05 35
9 07/01/2016 19:15:15 81.27, -62.37 60.97 07/01/2016 19:15:45 81.26, -62.29 60.99 1.29 30




NCC Satellite Simultaneous Nadir Overpasses (SNOs) Prediction Service
